Location: Muenchen
(48.1800°N, 11.5800°E)
Time: 09:13:45
(UTC+01:00)

Iridium 36 - Visible Passes

Search period start: 18 January 2018 00:00
Search period end: 28 January 2018 00:00
Orbit: 771 x 774 km, 86.4° (Epoch: 17 January)

Date Brightness Start Highest point End Pass type
(mag) Time Alt. Az. Time Alt. Az. Time Alt. Az.
18 Jan 7.9 06:36:44 10° SE 06:40:48 24° E 06:44:54 10° NNE visible
18 Jan 5.6 18:41:13 10° N 18:46:19 52° E 18:51:22 10° SSE visible
18 Jan 7.7 20:22:35 10° NNW 20:26:35 23° W 20:30:33 10° SW visible
19 Jan 8.4 06:03:44 10° ESE 06:06:16 14° ENE 06:08:47 10° NE visible
19 Jan 6.2 18:06:38 10° NNE 18:11:11 30° ENE 18:15:42 10° SE visible
19 Jan 6.8 19:47:05 10° NNW 19:51:54 39° W 19:56:41 10° SSW visible
20 Jan 6.5 07:06:12 10° SSE 07:11:14 53° E 07:16:17 10° NNE visible
20 Jan 6.9 17:32:27 10° NNE 17:35:54 18° ENE 17:39:20 10° ESE visible
20 Jan 5.7 19:11:55 10° N 19:17:06 70° W 19:22:15 10° S visible
21 Jan 7.5 06:32:01 10° SE 06:36:29 30° E 06:40:58 10° NNE visible
21 Jan 5.4 18:36:58 10° N 18:42:10 67° E 18:47:20 10° SSE visible
21 Jan 8.1 20:18:47 10° NW 20:22:14 18° WNW 20:25:39 10° WSW visible
22 Jan 8.3 05:58:32 10° ESE 06:01:53 18° ENE 06:05:14 10° NE visible
22 Jan 6.0 18:02:15 10° N 18:07:05 37° ENE 18:11:54 10° SSE visible
22 Jan 7.3 19:43:05 10° NNW 19:47:37 31° W 19:52:07 10° SW visible
23 Jan 6.0 07:01:51 10° S 07:06:59 68° E 07:12:10 10° N visible
23 Jan 6.6 17:27:51 10° NNE 17:31:53 22° ENE 17:35:53 10° ESE visible
23 Jan 6.2 19:07:47 10° NNW 19:12:52 55° W 19:17:55 10° SSW visible
24 Jan 7.1 06:27:26 10° SSE 06:32:11 38° E 06:36:59 10° NNE visible
24 Jan 5.4 18:32:45 10° N 18:37:59 85° E 18:43:11 10° S visible
24 Jan 8.4 20:15:12 10° NW 20:17:51 14° WNW 20:20:30 10° WSW visible
25 Jan 8.0 05:53:37 10° SE 05:57:32 22° E 06:01:28 10° NNE visible
25 Jan 5.7 17:57:56 10° N 18:02:59 48° E 18:07:59 10° SSE visible
25 Jan 7.7 19:39:09 10° NNW 19:43:18 25° W 19:47:26 10° SW visible
26 Jan 8.6 05:20:51 10° E 05:23:00 13° ENE 05:25:09 10° NE visible
26 Jan 5.6 06:57:35 10° S 07:02:46 87° E 07:08:00 10° N visible
26 Jan 6.8 19:03:43 10° NNW 19:08:37 42° W 19:13:28 10° SSW visible
27 Jan 6.6 06:22:57 10° SSE 06:27:55 49° E 06:32:56 10° NNE visible
27 Jan 5.7 18:28:34 10° N 18:33:47 76° W 18:38:58 10° S visible
27 Jan 8.7 20:12:10 10° WNW 20:13:27 11° WNW 20:14:44 10° W visible
